Regional Weather Roundup
Issued by NWS

Home | Current Version | Previous Version | Text Only | Print | Product List | Glossary Off
Versions: 1 2 3 4 5 6 7 8 9 10 11 12 13 14 15 16 17 18 19 20 21 22 23 24 25 26 27 28 29 30 31 32 33 34 35 36 37 38 39 40 41 42 43 44 45 46 47 48 49 50

000
ASUS43 KLSX 251110
RWRMO

WEATHER SUMMARY FOR MISSOURI
NATIONAL WEATHER SERVICE SPRINGFIELD MO
600 AM CDT SUN JUN 25 2017

NOTE: "FAIR" INDICATES FEW OR NO CLOUDS BELOW 12,000 FEET WITH NO
       SIGNIFICANT WEATHER AND/OR OBSTRUCTIONS TO VISIBILITY.
       CURRENT SKY AND/OR WEATHER CONDITIONS ARE NOT AVAILABLE FOR
       CHILLICOTHE AND FARMINGTON.

MOZ001>031-035>038-043-044-053-054-251200-
...NORTHERN AND WESTERN MISSOURI...

CITY           SKY/WX    TMP DP  RH WIND       PRES   REMARKS
KANSAS CTY INT PTCLDY    58  50  75 W7        30.25R
KANSAS C DTWN  PTCLDY    63  52  67 W5        30.24R
LEE`S SUMMIT   CLOUDY    62  51  67 W6        30.25R
ST JOSEPH      PTCLDY    51  49  92 CALM      30.27R
CHILLICOTHE      N/A     52  50  93 CALM      30.24R
KIRKSVILLE     CLEAR     50  48  93 W3        30.22R

$$
MOZ066>068-077>081-088>096-101>105-251200-
...SOUTHWEST MISSOURI...

CITY           SKY/WX    TMP DP  RH WIND       PRES   REMARKS
SPRINGFIELD    CLOUDY    62  53  72 CALM      30.27R
JOPLIN         CLOUDY    65  59  81 CALM      30.27R
BRANSON        CLOUDY    63  52  67 CALM      30.28S

$$
MOZ032>034-039>042-045>050-055>058-069>072-251200-
...CENTRAL MISSOURI...

CITY           SKY/WX    TMP DP  RH WIND       PRES   REMARKS
COLUMBIA       CLEAR     59  48  67 W6        30.22R
JEFFERSON CITY PTCLDY    60  50  69 SW3       30.22R
ROLLA          CLEAR     54  50  86 SW9       30.23R
SEDALIA        CLEAR     58  54  86 SW8       30.24R
WHITEMAN AFB   CLEAR     62  51  67 W7        30.22R
WARRENSBURG    CLOUDY    61  50  67 W8        30.23S
OSAGE BEACH    CLEAR     53  51  93 CALM      30.25R

$$
MOZ051-052-059>065-251200-
...EAST CENTRAL MISSOURI...

CITY           SKY/WX    TMP DP  RH WIND       PRES   REMARKS
ST LOUIS INTL  PTCLDY    63  48  58 SW8       30.19R
SPIRIT OF STL  PTCLDY    58  50  75 W8        30.19R
ST CHARLES     CLEAR     56  50  80 CALM      30.18R

$$
MOZ072>076-082>087-097>100-106>115-251200-
...SOUTH CENTRAL AND SOUTHEAST MISSOURI...

CITY           SKY/WX    TMP DP  RH WIND       PRES   REMARKS
CAPE GIRARDEAU CLEAR     55  53  93 SW3       30.21R
FARMINGTON     PTCLDY    51  49  92 CALM      30.24R
POPLAR BLUFF   PTCLDY    58  55  90 NW3       30.22R
WEST PLAINS    CLEAR     56  51  84 CALM      30.27R

$$




USA.gov is the U.S. government's official web portal to all federal, state and local government web resources and services.